Time,TemperatureF,DewpointF,PressureIn,WindDirection,WindDirectionDegrees,WindSpeedMPH,WindSpeedGustMPH,Humidity,HourlyPrecipIn,Conditions,Clouds,dailyrainin,SolarRadiationWatts/m^2,SoftwareType,DateUTC
2013-08-12 00:05:00,60.9,60.0,30.09,West,264,0.0,0.0,96,0.00,,,0.00,0,weatherlink.com 1.10,2013-08-12 04:05:00,
2013-08-12 00:20:00,60.9,60.0,30.09,West,263,0.0,0.0,96,0.00,,,0.00,0,weatherlink.com 1.10,2013-08-12 04:20:00,
2013-08-12 00:35:00,60.8,60.0,30.09,West,264,0.0,0.0,96,0.00,,,0.00,0,weatherlink.com 1.10,2013-08-12 04:35:00,
2013-08-12 00:50:00,60.7,60.0,30.08,West,264,0.0,0.0,96,0.00,,,0.00,0,weatherlink.com 1.10,2013-08-12 04:50:00,
2013-08-12 01:05:00,60.8,60.0,30.08,West,263,0.0,0.0,97,0.00,,,0.00,0,weatherlink.com 1.10,2013-08-12 05:05:00,
2013-08-12 01:20:00,60.9,60.0,30.08,West,264,0.0,0.0,97,0.00,,,0.00,0,weatherlink.com 1.10,2013-08-12 05:20:00,
2013-08-12 01:35:00,60.9,60.0,30.08,West,263,0.0,0.0,97,0.00,,,0.00,0,weatherlink.com 1.10,2013-08-12 05:35:00,
2013-08-12 01:50:00,60.6,60.0,30.08,West,263,0.0,0.0,96,0.00,,,0.00,0,weatherlink.com 1.10,2013-08-12 05:50:00,
2013-08-12 02:05:00,60.9,60.0,30.08,West,263,0.0,0.0,97,0.00,,,0.00,0,weatherlink.com 1.10,2013-08-12 06:05:00,
2013-08-12 02:20:00,61.1,60.0,30.08,West,264,0.0,0.0,97,0.00,,,0.00,0,weatherlink.com 1.10,2013-08-12 06:20:00,
2013-08-12 02:35:00,61.5,61.0,30.08,West,263,0.0,0.0,97,0.00,,,0.00,0,weatherlink.com 1.10,2013-08-12 06:35:00,
2013-08-12 02:50:00,61.9,61.0,30.07,West,263,0.0,0.0,97,0.00,,,0.00,0,weatherlink.com 1.10,2013-08-12 06:50:00,
2013-08-12 03:05:00,62.2,62.0,30.07,West,264,0.0,0.0,98,0.00,,,0.00,0,weatherlink.com 1.10,2013-08-12 07:05:00,
2013-08-12 03:20:00,62.1,61.0,30.07,West,263,0.0,0.0,97,0.00,,,0.00,0,weatherlink.com 1.10,2013-08-12 07:20:00,
2013-08-12 03:35:00,62.1,61.0,30.07,West,264,0.0,0.0,97,0.00,,,0.00,0,weatherlink.com 1.10,2013-08-12 07:35:00,
2013-08-12 03:50:00,62.2,61.0,30.06,West,264,0.0,0.0,97,0.00,,,0.00,0,weatherlink.com 1.10,2013-08-12 07:50:00,
2013-08-12 04:05:00,62.6,62.0,30.06,West,263,0.0,0.0,97,0.00,,,0.00,0,weatherlink.com 1.10,2013-08-12 08:05:00,
2013-08-12 04:20:00,62.7,62.0,30.07,West,264,0.0,0.0,97,0.00,,,0.00,0,weatherlink.com 1.10,2013-08-12 08:20:00,
2013-08-12 04:35:00,62.8,62.0,30.06,West,264,0.0,0.0,97,0.00,,,0.00,0,weatherlink.com 1.10,2013-08-12 08:35:00,
2013-08-12 04:50:00,63.1,62.0,30.05,West,264,0.0,0.0,97,0.00,,,0.00,0,weatherlink.com 1.10,2013-08-12 08:50:00,
2013-08-12 05:05:00,63.3,63.0,30.05,West,264,0.0,0.0,98,0.00,,,0.00,0,weatherlink.com 1.10,2013-08-12 09:05:00,
2013-08-12 05:20:00,63.7,63.0,30.06,West,263,0.0,0.0,98,0.00,,,0.00,0,weatherlink.com 1.10,2013-08-12 09:20:00,
2013-08-12 05:35:00,63.9,63.0,30.06,West,264,0.0,0.0,97,0.00,,,0.00,0,weatherlink.com 1.10,2013-08-12 09:35:00,
2013-08-12 05:50:00,64.1,64.0,30.06,West,264,0.0,0.0,98,0.00,,,0.00,0,weatherlink.com 1.10,2013-08-12 09:50:00,
2013-08-12 06:05:00,64.3,64.0,30.06,West,264,0.0,0.0,97,0.00,,,0.00,0,weatherlink.com 1.10,2013-08-12 10:05:00,
2013-08-12 06:20:00,64.4,64.0,30.06,West,263,0.0,0.0,97,0.00,,,0.00,7,weatherlink.com 1.10,2013-08-12 10:20:00,
2013-08-12 06:35:00,64.6,64.0,30.07,West,263,0.0,0.0,97,0.00,,,0.00,19,weatherlink.com 1.10,2013-08-12 10:35:00,
2013-08-12 06:50:00,64.8,64.0,30.07,West,264,0.0,0.0,97,0.00,,,0.00,30,weatherlink.com 1.10,2013-08-12 10:50:00,
2013-08-12 07:05:00,65.2,65.0,30.07,West,264,0.0,0.0,98,0.00,,,0.00,30,weatherlink.com 1.10,2013-08-12 11:05:00,
2013-08-12 07:20:00,65.6,65.0,30.07,West,264,0.0,0.0,97,0.00,,,0.00,23,weatherlink.com 1.10,2013-08-12 11:20:00,
2013-08-12 07:35:00,66.1,66.0,30.07,West,263,0.0,0.0,98,0.00,,,0.00,81,weatherlink.com 1.10,2013-08-12 11:35:00,
2013-08-12 07:50:00,66.6,66.0,30.07,West,263,0.0,0.0,97,0.00,,,0.00,62,weatherlink.com 1.10,2013-08-12 11:50:00,
2013-08-12 08:05:00,67.5,67.0,30.07,West,263,0.0,0.0,97,0.00,,,0.00,62,weatherlink.com 1.10,2013-08-12 12:05:00,
2013-08-12 08:20:00,68.6,68.0,30.07,SSW,213,0.0,1.0,97,0.00,,,0.00,88,weatherlink.com 1.10,2013-08-12 12:20:00,
2013-08-12 08:35:00,69.7,68.0,30.06,SSW,213,0.0,0.0,95,0.00,,,0.00,104,weatherlink.com 1.10,2013-08-12 12:35:00,
2013-08-12 08:50:00,70.7,68.0,30.06,ENE,62,0.0,1.0,91,0.00,,,0.00,107,weatherlink.com 1.10,2013-08-12 12:50:00,
2013-08-12 09:05:00,71.5,69.0,30.07,SSE,166,1.0,1.0,91,0.00,,,0.00,146,weatherlink.com 1.10,2013-08-12 13:05:00,
2013-08-12 09:20:00,72.1,68.0,30.07,SSE,167,0.0,2.0,88,0.00,,,0.00,139,weatherlink.com 1.10,2013-08-12 13:20:00,
2013-08-12 09:35:00,72.9,69.0,30.06,SSE,166,0.0,0.0,86,0.00,,,0.00,155,weatherlink.com 1.10,2013-08-12 13:35:00,
2013-08-12 09:50:00,73.0,68.0,30.07,SSE,166,0.0,1.0,83,0.00,,,0.00,204,weatherlink.com 1.10,2013-08-12 13:50:00,
2013-08-12 10:05:00,73.9,68.0,30.07,SE,126,0.0,1.0,82,0.00,,,0.00,287,weatherlink.com 1.10,2013-08-12 14:05:00,
2013-08-12 10:21:00,73.9,66.0,30.07,SE,134,0.0,1.0,77,0.00,,,0.00,285,weatherlink.com 1.10,2013-08-12 14:21:00,
2013-08-12 10:36:00,74.9,67.0,30.07,SE,134,0.0,1.0,75,0.00,,,0.00,220,weatherlink.com 1.10,2013-08-12 14:36:00,
2013-08-12 10:51:00,76.5,69.0,30.07,SE,134,0.0,1.0,77,0.00,,,0.00,561,weatherlink.com 1.10,2013-08-12 14:51:00,
2013-08-12 11:06:00,76.3,64.0,30.07,ESE,105,0.0,8.0,65,0.00,,,0.00,285,weatherlink.com 1.10,2013-08-12 15:06:00,
2013-08-12 11:21:00,76.0,63.0,30.07,ESE,106,0.0,1.0,65,0.00,,,0.00,364,weatherlink.com 1.10,2013-08-12 15:21:00,
2013-08-12 11:36:00,77.4,67.0,30.05,SSW,202,0.0,1.0,70,0.00,,,0.00,371,weatherlink.com 1.10,2013-08-12 15:36:00,
2013-08-12 11:51:00,80.2,70.0,30.05,West,272,0.0,2.0,70,0.00,,,0.00,599,weatherlink.com 1.10,2013-08-12 15:51:00,
2013-08-12 12:06:00,80.7,69.0,30.05,ESE,114,0.0,1.0,68,0.00,,,0.00,909,weatherlink.com 1.10,2013-08-12 16:06:00,
2013-08-12 12:21:00,83.8,66.0,30.05,ESE,113,0.0,3.0,56,0.00,,,0.00,585,weatherlink.com 1.10,2013-08-12 16:21:00,
2013-08-12 12:36:00,83.4,64.0,30.04,WSW,243,2.0,4.0,52,0.00,,,0.00,1074,weatherlink.com 1.10,2013-08-12 16:36:00,
2013-08-12 12:51:00,83.0,64.0,30.04,SW,232,0.0,2.0,53,0.00,,,0.00,529,weatherlink.com 1.10,2013-08-12 16:51:00,
2013-08-12 13:06:00,82.0,66.0,30.04,East,92,0.0,3.0,59,0.00,,,0.00,960,weatherlink.com 1.10,2013-08-12 17:06:00,
2013-08-12 13:21:00,81.6,67.0,30.04,NE,49,0.0,5.0,62,0.00,,,0.00,346,weatherlink.com 1.10,2013-08-12 17:21:00,
2013-08-12 13:36:00,82.1,67.0,30.03,ESE,102,0.0,2.0,60,0.00,,,0.00,881,weatherlink.com 1.10,2013-08-12 17:36:00,
2013-08-12 13:51:00,83.7,66.0,30.03,West,272,0.0,3.0,55,0.00,,,0.00,761,weatherlink.com 1.10,2013-08-12 17:51:00,
2013-08-12 14:06:00,84.2,68.0,30.03,South,180,0.0,4.0,58,0.00,,,0.00,846,weatherlink.com 1.10,2013-08-12 18:06:00,
2013-08-12 14:21:00,83.1,69.0,30.03,East,82,0.0,4.0,63,0.00,,,0.00,733,weatherlink.com 1.10,2013-08-12 18:21:00,
2013-08-12 14:36:00,82.2,67.0,30.02,ENE,68,0.0,4.0,61,0.00,,,0.00,838,weatherlink.com 1.10,2013-08-12 18:36:00,
2013-08-12 14:51:00,83.3,68.0,30.02,NW,307,2.0,4.0,60,0.00,,,0.00,390,weatherlink.com 1.10,2013-08-12 18:51:00,
2013-08-12 15:06:00,82.9,68.0,30.02,WNW,296,0.0,3.0,62,0.00,,,0.00,320,weatherlink.com 1.10,2013-08-12 19:06:00,
2013-08-12 15:21:00,81.6,68.0,30.02,East,83,0.0,3.0,64,0.00,,,0.00,406,weatherlink.com 1.10,2013-08-12 19:21:00,
2013-08-12 15:36:00,81.9,66.0,30.02,WSW,254,0.0,5.0,58,0.00,,,0.00,497,weatherlink.com 1.10,2013-08-12 19:36:00,
2013-08-12 15:51:00,83.0,67.0,30.02,ENE,69,0.0,3.0,59,0.00,,,0.00,738,weatherlink.com 1.10,2013-08-12 19:51:00,
2013-08-12 16:06:00,82.0,68.0,30.01,WNW,285,2.0,4.0,62,0.00,,,0.00,714,weatherlink.com 1.10,2013-08-12 20:06:00,
2013-08-12 16:21:00,81.4,66.0,30.02,SW,219,0.0,2.0,60,0.00,,,0.00,584,weatherlink.com 1.10,2013-08-12 20:21:00,
2013-08-12 16:36:00,82.3,67.0,30.01,NW,308,2.0,4.0,60,0.00,,,0.00,557,weatherlink.com 1.10,2013-08-12 20:36:00,
2013-08-12 16:51:00,82.7,68.0,30.00,West,270,3.0,4.0,61,0.00,,,0.00,508,weatherlink.com 1.10,2013-08-12 20:51:00,
2013-08-12 17:06:00,83.5,66.0,30.00,NW,318,1.0,3.0,55,0.00,,,0.00,441,weatherlink.com 1.10,2013-08-12 21:06:00,
2013-08-12 17:21:00,82.8,65.0,30.00,West,279,1.0,2.0,56,0.00,,,0.00,394,weatherlink.com 1.10,2013-08-12 21:21:00,
2013-08-12 17:36:00,81.5,66.0,30.01,West,261,1.0,5.0,60,0.00,,,0.00,360,weatherlink.com 1.10,2013-08-12 21:36:00,
2013-08-12 17:51:00,80.4,66.0,30.00,West,269,0.0,4.0,62,0.00,,,0.00,116,weatherlink.com 1.10,2013-08-12 21:51:00,
2013-08-12 18:06:00,78.6,66.0,30.00,WNW,288,0.0,3.0,65,0.00,,,0.00,44,weatherlink.com 1.10,2013-08-12 22:06:00,
2013-08-12 18:21:00,76.9,66.0,30.00,WNW,287,0.0,1.0,69,0.00,,,0.00,35,weatherlink.com 1.10,2013-08-12 22:21:00,
2013-08-12 18:36:00,75.7,66.0,30.00,WNW,284,0.0,3.0,72,0.00,,,0.00,30,weatherlink.com 1.10,2013-08-12 22:36:00,
2013-08-12 18:51:00,74.5,66.0,29.99,WNW,284,0.0,0.0,75,0.00,,,0.00,23,weatherlink.com 1.10,2013-08-12 22:51:00,
2013-08-12 19:06:00,72.9,66.0,29.99,WNW,284,0.0,0.0,80,0.00,,,0.00,14,weatherlink.com 1.10,2013-08-12 23:06:00,
2013-08-12 19:21:00,71.3,66.0,29.99,WNW,284,0.0,0.0,82,0.00,,,0.00,19,weatherlink.com 1.10,2013-08-12 23:21:00,
2013-08-12 19:36:00,70.1,66.0,29.99,WNW,284,0.0,0.0,86,0.00,,,0.00,9,weatherlink.com 1.10,2013-08-12 23:36:00,
2013-08-12 19:51:00,69.0,65.0,29.99,WNW,284,0.0,0.0,87,0.00,,,0.00,0,weatherlink.com 1.10,2013-08-12 23:51:00,
2013-08-12 20:06:00,68.2,65.0,29.99,WNW,284,0.0,0.0,89,0.00,,,0.00,0,weatherlink.com 1.10,2013-08-13 00:06:00,
2013-08-12 20:22:00,67.2,65.0,29.98,WNW,284,0.0,0.0,91,0.00,,,0.00,0,weatherlink.com 1.10,2013-08-13 00:22:00,
2013-08-12 20:37:00,66.4,64.0,29.98,WNW,284,0.0,0.0,92,0.00,,,0.00,0,weatherlink.com 1.10,2013-08-13 00:37:00,
2013-08-12 20:52:00,65.9,64.0,29.99,WNW,284,0.0,0.0,93,0.00,,,0.00,0,weatherlink.com 1.10,2013-08-13 00:52:00,
2013-08-12 21:07:00,65.5,64.0,30.00,WNW,284,0.0,0.0,93,0.00,,,0.00,0,weatherlink.com 1.10,2013-08-13 01:07:00,
2013-08-12 21:22:00,65.1,63.0,29.99,WNW,284,0.0,0.0,94,0.00,,,0.00,0,weatherlink.com 1.10,2013-08-13 01:22:00,
2013-08-12 21:37:00,65.0,64.0,29.99,WNW,284,0.0,0.0,95,0.00,,,0.00,0,weatherlink.com 1.10,2013-08-13 01:37:00,
2013-08-12 21:52:00,64.7,63.0,29.99,WNW,284,0.0,0.0,95,0.00,,,0.00,0,weatherlink.com 1.10,2013-08-13 01:52:00,
2013-08-12 22:07:00,64.5,63.0,29.99,WNW,284,0.0,0.0,95,0.00,,,0.00,0,weatherlink.com 1.10,2013-08-13 02:07:00,
2013-08-12 22:22:00,64.1,63.0,29.98,WNW,284,0.0,0.0,95,0.00,,,0.00,0,weatherlink.com 1.10,2013-08-13 02:22:00,
2013-08-12 22:37:00,64.0,63.0,29.98,WNW,284,0.0,0.0,95,0.00,,,0.00,0,weatherlink.com 1.10,2013-08-13 02:37:00,
2013-08-12 22:52:00,63.6,62.0,29.98,WNW,284,0.0,0.0,95,0.00,,,0.00,0,weatherlink.com 1.10,2013-08-13 02:52:00,
2013-08-12 23:07:00,63.3,62.0,29.98,WNW,284,0.0,0.0,96,0.00,,,0.00,0,weatherlink.com 1.10,2013-08-13 03:07:00,
2013-08-12 23:22:00,63.1,62.0,29.98,WNW,284,0.0,0.0,96,0.00,,,0.00,0,weatherlink.com 1.10,2013-08-13 03:22:00,
2013-08-12 23:37:00,62.9,62.0,29.99,WNW,284,0.0,0.0,96,0.00,,,0.00,0,weatherlink.com 1.10,2013-08-13 03:37:00,